This is the latest recevied weather packets stored in our database for station/object K8RRT. If no packets are shown the sender has not sent any weather packets the latest 10 day(s).
| Time | Temp. | Humidity | Pressure | Rain* | Wind** | Luminosity | Snow |
|---|---|---|---|---|---|---|---|
| 1777992674 | 22.78° C | 54% | 1007.9 hPa | 0 mm | - | 704 W/m² | - |
| 1777992371 | 22.78° C | 54% | 1007.8 hPa | 0 mm | - | 594 W/m² | - |
| 1777992069 | 22.22° C | 54% | 1008 hPa | 0 mm | - | 622 W/m² | - |
| 1777991766 | 22.22° C | 53% | 1008 hPa | 0 mm | - | 609 W/m² | - |
| 1777991463 | 22.22° C | 54% | 1007.7 hPa | 0 mm | - | 551 W/m² | - |
| 1777991160 | 22.22° C | 56% | 1007.9 hPa | 0 mm | - | 375 W/m² | - |
| 1777990857 | 22.22° C | 54% | 1007.9 hPa | 0 mm | - | 586 W/m² | - |
| 1777990554 | 22.22° C | 57% | 1007.9 hPa | 0 mm | - | 545 W/m² | - |
| 1777989948 | 21.67° C | 55% | 1007.8 hPa | 0 mm | - | 536 W/m² | - |
| 1777989644 | 21.67° C | 55% | 1007.8 hPa | 0 mm | - | 505 W/m² | - |
| 1777989341 | 21.67° C | 57% | 1008 hPa | 0 mm | - | 465 W/m² | - |
| 1777989037 | 21.67° C | 56% | 1007.8 hPa | 0 mm | - | 451 W/m² | - |
| 1777988733 | 21.11° C | 57% | 1007.8 hPa | 0 mm | - | 442 W/m² | - |
| 1777988431 | 21.11° C | 56% | 1007.7 hPa | 0 mm | - | 403 W/m² | - |
| 1777988127 | 21.11° C | 56% | 1007.5 hPa | 0 mm | - | 437 W/m² | - |
| 1777987823 | 21.11° C | 57% | 1007.9 hPa | 0 mm | - | 350 W/m² | - |
| 1777987520 | 21.11° C | 57% | 1007.8 hPa | 0 mm | - | 343 W/m² | - |
| 1777987218 | 21.11° C | 58% | 1007.7 hPa | 0 mm | - | 403 W/m² | - |
| 1777986914 | 20.56° C | 59% | 1007.8 hPa | 0 mm | - | 388 W/m² | - |
| 1777986612 | 20.56° C | 59% | 1007.7 hPa | 0 mm | - | 365 W/m² | - |
| 1777986310 | 20.56° C | 61% | 1007.8 hPa | 0 mm | - | 348 W/m² | - |
| 1777986009 | 20° C | 59% | 1008 hPa | 0 mm | - | 333 W/m² | - |
| 1777985705 | 20° C | 60% | 1008.1 hPa | 0 mm | - | 292 W/m² | - |
| 1777985401 | 19.44° C | 60% | 1007.9 hPa | 0 mm | - | 248 W/m² | - |
| 1777985098 | 20° C | 60% | 1008.3 hPa | 0 mm | - | 105 W/m² | - |
* Rain latest hour (hover to see other rain measurements)
** Current wind speed in m/s (hover to see current wind gust speed)